| time (UTC) | temp C | wind direction | speed KPH | gust KPH | rain 1hr cm | rain 24hr cm | rain mn cm | humidity % | barometer mb |
| 20260906113602 | 21 | 310 | 0.0 | 3.2 | 0.00 | 0.00 | 0.00 | 99 | 1012.4 |
| 20260906113100 | 21 | 352 | 0.0 | 3.2 | 0.00 | 0.00 | 0.00 | 99 | 1012.3 |
| 20260906112601 | 21 | 305 | 0.0 | 1.6 | 0.00 | 0.00 | 0.00 | 99 | 1012.4 |
| 20260906112101 | 21 | 7 | 0.0 | 1.6 | 0.00 | 0.00 | 0.00 | 99 | 1012.3 |
| 20260906111601 | 21 | 5 | 0.0 | 1.6 | 0.00 | 0.00 | 0.00 | 99 | 1012.3 |
| 20260906111101 | 21 | 28 | 0.0 | 1.6 | 0.00 | 0.00 | 0.00 | 99 | 1012.4 |
| 20260906110633 | 21 | 340 | 1.6 | 3.2 | 0.00 | 0.00 | 0.00 | 99 | 1012.4 |
| 20260906110623 | 21 | 329 | 1.6 | 3.2 | 0.00 | 0.00 | 0.00 | 99 | 1012.3 |
| 20260906105601 | 21 | 337 | 0.0 | 3.2 | 0.00 | 0.00 | 0.00 | 99 | 1012.3 |
| 20260906105101 | 21 | 0 | 1.6 | 3.2 | 0.00 | 0.00 | 0.00 | 99 | 1012.4 |
| 20260906104602 | 21 | 326 | 1.6 | 3.2 | 0.00 | 0.00 | 0.00 | 99 | 1012.4 |
| 20260906104101 | 21 | 350 | 1.6 | 3.2 | 0.00 | 0.00 | 0.00 | 99 | 1012.4 |
| 20260906103632 | 21 | 345 | 1.6 | 3.2 | 0.00 | 0.00 | 0.00 | 99 | 1012.5 |
| 20260906103622 | 21 | 322 | 1.6 | 3.2 | 0.00 | 0.00 | 0.00 | 99 | 1012.5 |
| 20260906102601 | 21 | 319 | 1.6 | 3.2 | 0.00 | 0.00 | 0.00 | 99 | 1012.5 |
| 20260906102101 | 21 | 348 | 0.0 | 3.2 | 0.00 | 0.00 | 0.00 | 99 | 1012.6 |
| 20260906101600 | 21 | 8 | 1.6 | 3.2 | 0.00 | 0.00 | 0.00 | 99 | 1012.6 |
| 20260906101343 | 21 | 309 | 1.6 | 3.2 | 0.00 | 0.00 | 0.00 | 99 | 1012.6 |
| 20260906100601 | 21 | 321 | 1.6 | 3.2 | 0.00 | 0.00 | 0.00 | 99 | 1012.6 |
| 20260906095601 | 21 | 333 | 0.0 | 1.6 | 0.00 | 0.00 | 0.00 | 99 | 1012.6 |
| 20260906095102 | 21 | 318 | 0.0 | 1.6 | 0.00 | 0.00 | 0.00 | 99 | 1012.6 |
| 20260906094634 | 21 | 0 | 1.6 | 3.2 | 0.00 | 0.00 | 0.00 | 99 | 1012.6 |
| 20260906094624 | 21 | 314 | 0.0 | 1.6 | 0.00 | 0.00 | 0.00 | 99 | 1012.6 |
| 20260906093602 | 21 | 0 | 1.6 | 3.2 | 0.00 | 0.00 | 0.00 | 99 | 1012.6 |
| 20260906093100 | 21 | 329 | 1.6 | 3.2 | 0.00 | 0.00 | 0.00 | 99 | 1012.6 |
| 20260906092634 | 21 | 27 | 1.6 | 3.2 | 0.00 | 0.00 | 0.00 | 99 | 1012.5 |
| 20260906092623 | 21 | 320 | 1.6 | 3.2 | 0.00 | 0.00 | 0.00 | 99 | 1012.6 |
| 20260906091601 | 21 | 324 | 1.6 | 3.2 | 0.00 | 0.00 | 0.00 | 99 | 1012.5 |
| 20260906091101 | 21 | 327 | 1.6 | 3.2 | 0.00 | 0.00 | 0.00 | 99 | 1012.5 |
| 20260906090601 | 21 | 327 | 1.6 | 3.2 | 0.00 | 0.00 | 0.00 | 99 | 1012.5 |
| 20260906090100 | 21 | 347 | 1.6 | 3.2 | 0.00 | 0.00 | 0.00 | 99 | 1012.5 |
| 20260906085601 | 21 | 21 | 1.6 | 3.2 | 0.00 | 0.00 | 0.00 | 99 | 1012.4 |
| 20260906085101 | 21 | 7 | 1.6 | 3.2 | 0.00 | 0.00 | 0.00 | 99 | 1012.3 |
| 20260906084636 | 21 | 23 | 1.6 | 3.2 | 0.00 | 0.00 | 0.00 | 99 | 1012.2 |
| 20260906084624 | 21 | 5 | 1.6 | 3.2 | 0.00 | 0.00 | 0.00 | 99 | 1012.3 |
| 20260906083917 | 21 | 0 | 0.0 | 1.6 | 0.00 | 0.00 | 0.00 | 98 | 1012.2 |
| 20260906083912 | 21 | 10 | 1.6 | 3.2 | 0.00 | 0.00 | 0.00 | 98 | 1012.2 |
| 20260906082600 | 21 | 0 | 0.0 | 3.2 | 0.00 | 0.00 | 0.00 | 98 | 1012.2 |
| 20260906082100 | 21 | 0 | 0.0 | 3.2 | 0.00 | 0.00 | 0.00 | 98 | 1012.2 |
| 20260906081635 | 21 | 26 | 0.0 | 1.6 | 0.00 | 0.00 | 0.00 | 98 | 1012.2 |
| 20260906081623 | 21 | 0 | 0.0 | 1.6 | 0.00 | 0.00 | 0.00 | 99 | 1012.3 |
| 20260906080600 | 21 | 0 | 0.0 | 1.6 | 0.00 | 0.00 | 0.00 | 99 | 1012.2 |
| 20260906075600 | 21 | 305 | 1.6 | 3.2 | 0.00 | 0.00 | 0.00 | 98 | 1012.3 |
| 20260906075102 | 21 | 300 | 1.6 | 3.2 | 0.00 | 0.00 | 0.00 | 98 | 1012.3 |
| 20260906074604 | 21 | 0 | 1.6 | 3.2 | 0.00 | 0.00 | 0.00 | 99 | 1012.3 |
| 20260906074101 | 21 | 339 | 0.0 | 1.6 | 0.00 | 0.00 | 0.00 | 98 | 1012.4 |
| 20260906073601 | 21 | 353 | 0.0 | 1.6 | 0.00 | 0.00 | 0.00 | 98 | 1012.4 |
| 20260906073102 | 21 | 0 | 0.0 | 1.6 | 0.00 | 0.00 | 0.00 | 98 | 1012.4 |
| 20260906072602 | 21 | 344 | 0.0 | 1.6 | 0.00 | 0.00 | 0.00 | 98 | 1012.4 |
| 20260906072103 | 21 | 341 | 0.0 | 1.6 | 0.00 | 0.00 | 0.00 | 98 | 1012.4 |
| 20260906071602 | 22 | 0 | 0.0 | 1.6 | 0.00 | 0.00 | 0.00 | 98 | 1012.5 |
| 20260906071102 | 22 | 359 | 0.0 | 3.2 | 0.00 | 0.00 | 0.00 | 98 | 1012.5 |
| 20260906070602 | 22 | 33 | 0.0 | 3.2 | 0.00 | 0.00 | 0.00 | 98 | 1012.5 |
| 20260906065601 | 22 | 0 | 1.6 | 3.2 | 0.00 | 0.00 | 0.00 | 98 | 1012.5 |
| 20260906065102 | 22 | 329 | 1.6 | 3.2 | 0.00 | 0.00 | 0.00 | 98 | 1012.5 |
| 20260906064602 | 22 | 355 | 0.0 | 3.2 | 0.00 | 0.00 | 0.00 | 98 | 1012.6 |
| 20260906064104 | 22 | 48 | 0.0 | 1.6 | 0.00 | 0.00 | 0.00 | 98 | 1012.4 |
| 20260906063602 | 22 | 28 | 0.0 | 1.6 | 0.00 | 0.00 | 0.00 | 98 | 1012.4 |
| 20260906063102 | 22 | 0 | 0.0 | 1.6 | 0.00 | 0.00 | 0.00 | 98 | 1012.6 |
| 20260906062602 | 22 | 10 | 1.6 | 3.2 | 0.00 | 0.00 | 0.00 | 98 | 1012.6 |
| 20260906062102 | 22 | 0 | 3.2 | 3.2 | 0.00 | 0.00 | 0.00 | 98 | 1012.6 |
| 20260906061602 | 22 | 326 | 1.6 | 3.2 | 0.00 | 0.00 | 0.00 | 98 | 1012.7 |
| 20260906061102 | 22 | 331 | 0.0 | 3.2 | 0.00 | 0.00 | 0.00 | 98 | 1012.7 |
| 20260906060603 | 22 | 331 | 0.0 | 1.6 | 0.00 | 0.00 | 0.00 | 97 | 1012.8 |
| 20260906055602 | 22 | 0 | 0.0 | 1.6 | 0.00 | 0.00 | 0.00 | 97 | 1012.8 |
| 20260906055102 | 22 | 0 | 0.0 | 1.6 | 0.00 | 0.00 | 0.00 | 97 | 1012.8 |
| 20260906054602 | 22 | 0 | 0.0 | 1.6 | 0.00 | 0.00 | 0.00 | 97 | 1012.8 |
| 20260906054102 | 22 | 9 | 0.0 | 1.6 | 0.00 | 0.00 | 0.00 | 97 | 1012.7 |
| 20260906053602 | 22 | 336 | 0.0 | 3.2 | 0.00 | 0.00 | 0.00 | 96 | 1012.7 |
| 20260906053101 | 22 | 0 | 0.0 | 3.2 | 0.00 | 0.00 | 0.00 | 96 | 1012.8 |
| 20260906052602 | 22 | 326 | 0.0 | 1.6 | 0.00 | 0.00 | 0.00 | 96 | 1012.9 |
| 20260906052102 | 22 | 16 | 0.0 | 1.6 | 0.00 | 0.00 | 0.00 | 96 | 1013.0 |
| 20260906051602 | 22 | 0 | 1.6 | 4.8 | 0.00 | 0.00 | 0.00 | 96 | 1013.0 |
| 20260906051102 | 22 | 306 | 1.6 | 4.8 | 0.00 | 0.00 | 0.00 | 96 | 1013.0 |
| 20260906050844 | 22 | 314 | 1.6 | 3.2 | 0.00 | 0.00 | 0.00 | 96 | 1012.9 |
| 20260906045602 | 22 | 0 | 0.0 | 1.6 | 0.00 | 0.00 | 0.00 | 95 | 1012.9 |
| 20260906045101 | 22 | 0 | 0.0 | 1.6 | 0.00 | 0.00 | 0.00 | 95 | 1012.8 |
| 20260906044845 | 22 | 0 | 0.0 | 1.6 | 0.00 | 0.00 | 0.00 | 95 | 1012.9 |
| 20260906044103 | 22 | 0 | 0.0 | 3.2 | 0.00 | 0.00 | 0.00 | 95 | 1012.9 |
| 20260906043602 | 22 | 328 | 1.6 | 3.2 | 0.00 | 0.00 | 0.00 | 95 | 1012.8 |
| 20260906043101 | 22 | 319 | 1.6 | 3.2 | 0.00 | 0.00 | 0.00 | 95 | 1012.9 |
| 20260906042601 | 22 | 325 | 1.6 | 3.2 | 0.00 | 0.00 | 0.00 | 95 | 1012.9 |
| 20260906042101 | 22 | 322 | 1.6 | 3.2 | 0.00 | 0.00 | 0.00 | 95 | 1012.9 |
| 20260906041601 | 22 | 317 | 1.6 | 3.2 | 0.00 | 0.00 | 0.00 | 94 | 1012.8 |
| 20260906041101 | 22 | 315 | 1.6 | 3.2 | 0.00 | 0.00 | 0.00 | 94 | 1012.8 |
| 20260906040600 | 22 | 0 | 1.6 | 3.2 | 0.00 | 0.00 | 0.00 | 94 | 1012.8 |
| 20260906040100 | 23 | 0 | 1.6 | 3.2 | 0.00 | 0.00 | 0.00 | 94 | 1012.8 |
| 20260906035602 | 23 | 324 | 1.6 | 3.2 | 0.00 | 0.00 | 0.00 | 93 | 1012.8 |
| 20260906035102 | 23 | 315 | 0.0 | 3.2 | 0.00 | 0.00 | 0.00 | 93 | 1012.9 |
| 20260906034601 | 23 | 0 | 0.0 | 1.6 | 0.00 | 0.00 | 0.00 | 93 | 1013.0 |
| 20260906034100 | 23 | 0 | 0.0 | 3.2 | 0.00 | 0.00 | 0.00 | 94 | 1013.0 |
| 20260906033601 | 23 | 0 | 1.6 | 3.2 | 0.00 | 0.00 | 0.00 | 93 | 1013.0 |
| 20260906033343 | 23 | 0 | 0.0 | 3.2 | 0.00 | 0.00 | 0.00 | 93 | 1013.0 |
| 20260906032601 | 23 | 0 | 0.0 | 1.6 | 0.00 | 0.00 | 0.00 | 93 | 1013.0 |
| 20260906032134 | 23 | 3 | 1.6 | 3.2 | 0.00 | 0.00 | 0.00 | 92 | 1012.9 |
| 20260906032123 | 23 | 0 | 0.0 | 3.2 | 0.00 | 0.00 | 0.00 | 92 | 1012.9 |
| 20260906031101 | 23 | 17 | 1.6 | 3.2 | 0.00 | 0.00 | 0.00 | 91 | 1013.0 |
| 20260906030600 | 23 | 0 | 0.0 | 3.2 | 0.00 | 0.00 | 0.00 | 91 | 1013.2 |
| 20260906030101 | 23 | 0 | 1.6 | 3.2 | 0.00 | 0.00 | 0.00 | 90 | 1013.2 |
| 20260906025601 | 23 | 0 | 1.6 | 3.2 | 0.00 | 0.00 | 0.00 | 90 | 1013.3 |
| 20260906025101 | 23 | 358 | 1.6 | 3.2 | 0.00 | 0.00 | 0.00 | 90 | 1013.2 |
| 20260906024601 | 24 | 320 | 1.6 | 3.2 | 0.00 | 0.00 | 0.00 | 90 | 1013.2 |
| 20260906024101 | 24 | 88 | 1.6 | 3.2 | 0.00 | 0.00 | 0.00 | 89 | 1013.3 |
| 20260906023600 | 24 | 294 | 1.6 | 3.2 | 0.00 | 0.00 | 0.00 | 89 | 1013.2 |
| 20260906023135 | 25 | 95 | 1.6 | 3.2 | 0.00 | 0.00 | 0.00 | 88 | 1013.0 |
| 20260906023123 | 24 | 0 | 1.6 | 3.2 | 0.00 | 0.00 | 0.00 | 90 | 1013.2 |
| 20260906022101 | 25 | 0 | 1.6 | 3.2 | 0.00 | 0.00 | 0.00 | 85 | 1012.9 |
| 20260906021600 | 25 | 348 | 1.6 | 3.2 | 0.00 | 0.00 | 0.00 | 85 | 1013.1 |
| 20260906021101 | 25 | 0 | 1.6 | 3.2 | 0.00 | 0.00 | 0.00 | 87 | 1013.1 |
| 20260906020601 | 25 | 0 | 3.2 | 4.8 | 0.00 | 0.00 | 0.00 | 85 | 1013.1 |
| 20260906015602 | 25 | 344 | 1.6 | 3.2 | 0.00 | 0.00 | 0.00 | 85 | 1013.0 |
| 20260906015101 | 25 | 78 | 1.6 | 3.2 | 0.00 | 0.00 | 0.00 | 84 | 1013.0 |
| 20260906014845 | 25 | 0 | 1.6 | 4.8 | 0.00 | 0.00 | 0.00 | 81 | 1012.8 |
| 20260906014101 | 25 | 0 | 1.6 | 4.8 | 0.00 | 0.00 | 0.00 | 81 | 1012.7 |
| 20260906013602 | 25 | 338 | 0.0 | 3.2 | 0.00 | 0.00 | 0.00 | 83 | 1012.5 |
| 20260906013100 | 25 | 307 | 0.0 | 3.2 | 0.00 | 0.00 | 0.00 | 82 | 1012.4 |
| 20260906012601 | 25 | 0 | 1.6 | 3.2 | 0.00 | 0.00 | 0.00 | 82 | 1012.5 |
| 20260906012102 | 25 | 72 | 1.6 | 4.8 | 0.00 | 0.00 | 0.00 | 84 | 1012.5 |
| 20260906011601 | 25 | 7 | 1.6 | 4.8 | 0.00 | 0.00 | 0.00 | 84 | 1012.5 |
| 20260906011101 | 25 | 0 | 0.0 | 3.2 | 0.00 | 0.00 | 0.00 | 85 | 1012.6 |
| 20260906010601 | 25 | 0 | 0.0 | 3.2 | 0.00 | 0.00 | 0.00 | 85 | 1012.5 |
| 20260906010101 | 25 | 94 | 1.6 | 3.2 | 0.00 | 0.00 | 0.00 | 86 | 1012.3 |
| 20260906005847 | 25 | 97 | 1.6 | 4.8 | 0.00 | 0.00 | 0.00 | 87 | 1012.2 |
| 20260906005100 | 25 | 333 | 1.6 | 4.8 | 0.00 | 0.00 | 0.00 | 85 | 1011.7 |
| 20260906004602 | 25 | 0 | 0.0 | 3.2 | 0.00 | 0.00 | 0.00 | 85 | 1011.6 |
| 20260906004345 | 25 | 0 | 1.6 | 3.2 | 0.00 | 0.00 | 0.00 | 84 | 1011.6 |
| 20260906003601 | 25 | 74 | 0.0 | 3.2 | 0.00 | 0.00 | 0.00 | 84 | 1011.5 |
| 20260906003102 | 26 | 0 | 1.6 | 4.8 | 0.00 | 0.00 | 0.00 | 82 | 1011.5 |
| 20260906002601 | 26 | 0 | 3.2 | 4.8 | 0.00 | 0.00 | 0.00 | 79 | 1011.2 |
| 20260906002101 | 26 | 339 | 1.6 | 4.8 | 0.00 | 0.00 | 0.00 | 80 | 1011.3 |
| 20260906001601 | 26 | 346 | 1.6 | 3.2 | 0.00 | 0.00 | 0.00 | 79 | 1011.3 |
| 20260906001101 | 26 | 359 | 1.6 | 3.2 | 0.00 | 0.00 | 0.00 | 80 | 1011.3 |
| 20260906000601 | 26 | 10 | 0.0 | 3.2 | 0.00 | 0.00 | 0.00 | 79 | 1011.2 |
| 20260905235601 | 27 | 330 | 1.6 | 3.2 | 0.00 | 0.00 | 0.00 | 76 | 1010.9 |
| 20260905235101 | 27 | 337 | 1.6 | 3.2 | 0.00 | 0.00 | 0.00 | 75 | 1010.7 |
| 20260905234601 | 27 | 306 | 1.6 | 3.2 | 0.00 | 0.00 | 0.00 | 74 | 1010.7 |
| 20260905234101 | 27 | 349 | 0.0 | 3.2 | 0.00 | 0.00 | 0.00 | 73 | 1010.7 |
| 20260905233846 | 27 | 287 | 0.0 | 3.2 | 0.00 | 0.00 | 0.00 | 75 | 1010.6 |
| 20260905233102 | 28 | 49 | 1.6 | 3.2 | 0.00 | 0.00 | 0.00 | 72 | 1010.7 |
| 20260905232601 | 28 | 74 | 1.6 | 6.4 | 0.00 | 0.00 | 0.00 | 71 | 1010.8 |
| 20260905232344 | 28 | 336 | 3.2 | 6.4 | 0.00 | 0.00 | 0.00 | 70 | 1011.1 |
| 20260905231601 | 28 | 212 | 4.8 | 11.3 | 0.00 | 0.00 | 0.00 | 70 | 1011.1 |
| 20260905231100 | 29 | 184 | 4.8 | 11.3 | 0.00 | 0.00 | 0.00 | 69 | 1011.1 |
| 20260905230601 | 30 | 131 | 3.2 | 6.4 | 0.00 | 0.00 | 0.00 | 67 | 1011.2 |
| 20260905230134 | 31 | 89 | 3.2 | 6.4 | 0.00 | 0.00 | 0.00 | 77 | 1011.3 |
| 20260905230123 | 30 | 53 | 3.2 | 6.4 | 0.00 | 0.00 | 0.00 | 66 | 1011.3 |
| 20260905225102 | 31 | 58 | 3.2 | 6.4 | 0.00 | 0.00 | 0.00 | 70 | 1011.1 |
| 20260905224844 | 32 | 22 | 3.2 | 6.4 | 0.00 | 0.00 | 0.00 | 73 | 1010.9 |
| 20260905224103 | 33 | 10 | 1.6 | 3.2 | 0.00 | 0.00 | 0.00 | 69 | 1010.5 |
| 20260905223602 | 33 | 347 | 1.6 | 3.2 | 0.00 | 0.00 | 0.00 | 67 | 1010.4 |
| 20260905223100 | 33 | 343 | 3.2 | 3.2 | 0.00 | 0.00 | 0.00 | 67 | 1010.4 |
| 20260905222600 | 34 | 346 | 1.6 | 3.2 | 0.00 | 0.00 | 0.00 | 64 | 1010.4 |
| 20260905222101 | 35 | 352 | 1.6 | 3.2 | 0.00 | 0.00 | 0.00 | 60 | 1010.4 |
| 20260905221601 | 35 | 50 | 0.0 | 3.2 | 0.00 | 0.00 | 0.00 | 57 | 1010.4 |
| 20260905221100 | 36 | 0 | 1.6 | 3.2 | 0.00 | 0.00 | 0.00 | 56 | 1010.3 |
| 20260905220845 | 37 | 0 | 1.6 | 4.8 | 0.00 | 0.00 | 0.00 | 56 | 1010.4 |
| 20260905215600 | 37 | 193 | 3.2 | 4.8 | 0.00 | 0.00 | 0.00 | 51 | 1010.5 |
| 20260905215102 | 37 | 203 | 3.2 | 4.8 | 0.00 | 0.00 | 0.00 | 51 | 1010.4 |
| 20260905214602 | 37 | 0 | 1.6 | 4.8 | 0.00 | 0.00 | 0.00 | 50 | 1010.3 |
| 20260905214346 | 37 | 322 | 1.6 | 4.8 | 0.00 | 0.00 | 0.00 | 49 | 1010.3 |
| 20260905213844 | 36 | 227 | 3.2 | 4.8 | 0.00 | 0.00 | 0.00 | 51 | 1010.2 |
| 20260905213101 | 36 | 358 | 3.2 | 6.4 | 0.00 | 0.00 | 0.00 | 53 | 1010.2 |
| 20260905212600 | 37 | 352 | 1.6 | 6.4 | 0.00 | 0.00 | 0.00 | 52 | 1010.2 |
| 20260905212103 | 37 | 347 | 1.6 | 4.8 | 0.00 | 0.00 | 0.00 | 49 | 1010.2 |
| 20260905211602 | 37 | 317 | 1.6 | 4.8 | 0.00 | 0.00 | 0.00 | 47 | 1010.3 |
| 20260905211102 | 36 | 4 | 1.6 | 6.4 | 0.00 | 0.00 | 0.00 | 48 | 1010.3 |
| 20260905210602 | 36 | 316 | 3.2 | 6.4 | 0.00 | 0.00 | 0.00 | 52 | 1010.4 |
| 20260905205603 | 37 | 317 | 3.2 | 4.8 | 0.00 | 0.00 | 0.00 | 52 | 1010.6 |
| 20260905205101 | 37 | 341 | 3.2 | 4.8 | 0.00 | 0.00 | 0.00 | 52 | 1010.8 |
| 20260905204601 | 37 | 5 | 3.2 | 4.8 | 0.00 | 0.00 | 0.00 | 51 | 1010.8 |
| 20260905204101 | 36 | 318 | 3.2 | 6.4 | 0.00 | 0.00 | 0.00 | 48 | 1010.8 |
| 20260905203601 | 36 | 318 | 3.2 | 6.4 | 0.00 | 0.00 | 0.00 | 52 | 1010.9 |
| 20260905203101 | 36 | 317 | 3.2 | 6.4 | 0.00 | 0.00 | 0.00 | 54 | 1011.0 |
| 20260905202600 | 37 | 320 | 3.2 | 6.4 | 0.00 | 0.00 | 0.00 | 48 | 1011.0 |
| 20260905202100 | 37 | 319 | 3.2 | 6.4 | 0.00 | 0.00 | 0.00 | 50 | 1011.0 |
| 20260905201601 | 36 | 317 | 3.2 | 6.4 | 0.00 | 0.00 | 0.00 | 50 | 1011.0 |
| 20260905201101 | 36 | 266 | 3.2 | 6.4 | 0.00 | 0.00 | 0.00 | 53 | 1011.1 |
| 20260905200602 | 35 | 316 | 3.2 | 6.4 | 0.00 | 0.00 | 0.00 | 52 | 1011.1 |
| 20260905200100 | 35 | 318 | 3.2 | 6.4 | 0.00 | 0.00 | 0.00 | 52 | 1011.2 |
| 20260905195601 | 36 | 317 | 3.2 | 9.7 | 0.00 | 0.00 | 0.00 | 52 | 1011.3 |
| 20260905195343 | 36 | 320 | 4.8 | 9.7 | 0.00 | 0.00 | 0.00 | 51 | 1011.3 |
| 20260905194844 | 36 | 332 | 3.2 | 6.4 | 0.00 | 0.00 | 0.00 | 53 | 1011.4 |
| 20260905194123 | 36 | 348 | 3.2 | 6.4 | 0.00 | 0.00 | 0.00 | 51 | 1011.5 |
| 20260905193102 | 36 | 296 | 1.6 | 4.8 | 0.00 | 0.00 | 0.00 | 51 | 1011.5 |
| 20260905192843 | 36 | 317 | 3.2 | 4.8 | 0.00 | 0.00 | 0.00 | 54 | 1011.5 |
| 20260905192102 | 36 | 330 | 3.2 | 4.8 | 0.00 | 0.00 | 0.00 | 55 | 1011.6 |
| 20260905191601 | 36 | 319 | 3.2 | 6.4 | 0.00 | 0.00 | 0.00 | 52 | 1011.6 |
| 20260905191101 | 35 | 316 | 3.2 | 6.4 | 0.00 | 0.00 | 0.00 | 53 | 1011.7 |
| 20260905190600 | 35 | 46 | 3.2 | 6.4 | 0.00 | 0.00 | 0.00 | 52 | 1011.8 |
| 20260905185843 | 35 | 317 | 4.8 | 8.0 | 0.00 | 0.00 | 0.00 | 53 | 1012.0 |
| 20260905185101 | 35 | 320 | 3.2 | 8.0 | 0.00 | 0.00 | 0.00 | 54 | 1012.1 |
| 20260905184601 | 35 | 316 | 3.2 | 8.0 | 0.00 | 0.00 | 0.00 | 59 | 1012.1 |
| 20260905184102 | 35 | 355 | 3.2 | 8.0 | 0.00 | 0.00 | 0.00 | 55 | 1012.2 |
| 20260905183600 | 35 | 301 | 1.6 | 4.8 | 0.00 | 0.00 | 0.00 | 57 | 1012.3 |
| 20260905183100 | 35 | 130 | 1.6 | 6.4 | 0.00 | 0.00 | 0.00 | 57 | 1012.4 |
| 20260905182636 | 36 | 133 | 3.2 | 6.4 | 0.00 | 0.00 | 0.00 | 55 | 1012.5 |
| 20260905182625 | 35 | 323 | 3.2 | 6.4 | 0.00 | 0.00 | 0.00 | 56 | 1012.4 |
| 20260905181601 | 35 | 318 | 3.2 | 6.4 | 0.00 | 0.00 | 0.00 | 55 | 1012.5 |
| 20260905181101 | 35 | 317 | 3.2 | 6.4 | 0.00 | 0.00 | 0.00 | 54 | 1012.5 |
| 20260905180601 | 35 | 318 | 3.2 | 6.4 | 0.00 | 0.00 | 0.00 | 57 | 1012.6 |
| 20260905180100 | 35 | 317 | 3.2 | 6.4 | 0.00 | 0.00 | 0.00 | 53 | 1012.6 |
| 20260905175601 | 35 | 1 | 3.2 | 6.4 | 0.00 | 0.00 | 0.00 | 58 | 1012.7 |
| 20260905175101 | 35 | 155 | 1.6 | 6.4 | 0.00 | 0.00 | 0.00 | 58 | 1012.7 |
| 20260905174601 | 35 | 349 | 3.2 | 8.0 | 0.00 | 0.00 | 0.00 | 57 | 1012.8 |
| 20260905174102 | 34 | 331 | 3.2 | 8.0 | 0.00 | 0.00 | 0.00 | 60 | 1012.9 |
| 20260905173601 | 33 | 333 | 3.2 | 6.4 | 0.00 | 0.00 | 0.00 | 60 | 1012.9 |
| 20260905173101 | 34 | 359 | 3.2 | 6.4 | 0.00 | 0.00 | 0.00 | 59 | 1013.0 |
| 20260905172600 | 34 | 333 | 3.2 | 6.4 | 0.00 | 0.00 | 0.00 | 59 | 1013.1 |
| 20260905172101 | 34 | 349 | 3.2 | 6.4 | 0.00 | 0.00 | 0.00 | 57 | 1013.1 |
| 20260905171601 | 34 | 257 | 3.2 | 6.4 | 0.00 | 0.00 | 0.00 | 58 | 1013.2 |
| 20260905171347 | 34 | 39 | 3.2 | 8.0 | 0.00 | 0.00 | 0.00 | 61 | 1013.2 |
| 20260905170601 | 34 | 343 | 3.2 | 8.0 | 0.00 | 0.00 | 0.00 | 62 | 1013.2 |
| 20260905170100 | 34 | 336 | 3.2 | 8.0 | 0.00 | 0.00 | 0.00 | 60 | 1013.2 |
| 20260905165844 | 33 | 0 | 1.6 | 6.4 | 0.00 | 0.00 | 0.00 | 60 | 1013.2 |
| 20260905165101 | 33 | 216 | 1.6 | 4.8 | 0.00 | 0.00 | 0.00 | 61 | 1013.3 |
| 20260905164601 | 33 | 337 | 3.2 | 6.4 | 0.00 | 0.00 | 0.00 | 63 | 1013.4 |
| 20260905164100 | 33 | 23 | 3.2 | 8.0 | 0.00 | 0.00 | 0.00 | 62 | 1013.4 |
| 20260905163601 | 33 | 10 | 3.2 | 8.0 | 0.00 | 0.00 | 0.00 | 64 | 1013.5 |
| 20260905163102 | 32 | 5 | 3.2 | 6.4 | 0.00 | 0.00 | 0.00 | 62 | 1013.5 |
| 20260905162600 | 32 | 23 | 3.2 | 6.4 | 0.00 | 0.00 | 0.00 | 64 | 1013.6 |
| 20260905162122 | 32 | 296 | 3.2 | 6.4 | 0.00 | 0.00 | 0.00 | 69 | 1013.8 |
| 20260905161101 | 32 | 345 | 3.2 | 4.8 | 0.00 | 0.00 | 0.00 | 66 | 1013.9 |
| 20260905160601 | 32 | 356 | 3.2 | 4.8 | 0.00 | 0.00 | 0.00 | 69 | 1014.0 |
| 20260905160101 | 31 | 41 | 3.2 | 6.4 | 0.00 | 0.00 | 0.00 | 66 | 1014.0 |
| 20260905155600 | 31 | 36 | 3.2 | 6.4 | 0.00 | 0.00 | 0.00 | 71 | 1014.1 |
| 20260905155102 | 31 | 21 | 3.2 | 4.8 | 0.00 | 0.00 | 0.00 | 70 | 1014.1 |
| 20260905154615 | 30 | 5 | 3.2 | 4.8 | 0.00 | 0.00 | 0.00 | 73 | 1014.2 |
| 20260905154609 | 30 | 26 | 3.2 | 4.8 | 0.00 | 0.00 | 0.00 | 71 | 1014.2 |
| 20260905153601 | 30 | 26 | 3.2 | 6.4 | 0.00 | 0.00 | 0.00 | 71 | 1014.2 |
| 20260905153101 | 30 | 345 | 3.2 | 6.4 | 0.00 | 0.00 | 0.00 | 73 | 1014.2 |
| 20260905152601 | 30 | 44 | 3.2 | 6.4 | 0.00 | 0.00 | 0.00 | 73 | 1014.2 |
| 20260905152101 | 29 | 2 | 3.2 | 6.4 | 0.00 | 0.00 | 0.00 | 77 | 1014.2 |
| 20260905151602 | 29 | 359 | 3.2 | 6.4 | 0.00 | 0.00 | 0.00 | 75 | 1014.2 |
| 20260905151102 | 29 | 25 | 3.2 | 3.2 | 0.00 | 0.00 | 0.00 | 78 | 1014.2 |
| 20260905150601 | 29 | 17 | 3.2 | 3.2 | 0.00 | 0.00 | 0.00 | 75 | 1014.2 |
| 20260905145601 | 28 | 356 | 3.2 | 8.0 | 0.00 | 0.00 | 0.00 | 77 | 1014.2 |
| 20260905145101 | 28 | 349 | 3.2 | 4.8 | 0.00 | 0.00 | 0.00 | 78 | 1014.2 |
| 20260905144602 | 28 | 348 | 3.2 | 4.8 | 0.00 | 0.00 | 0.00 | 80 | 1014.3 |
| 20260905144102 | 28 | 353 | 3.2 | 6.4 | 0.00 | 0.00 | 0.00 | 78 | 1014.4 |
| 20260905143601 | 28 | 344 | 3.2 | 8.0 | 0.00 | 0.00 | 0.00 | 80 | 1014.4 |
| 20260905143345 | 27 | 359 | 3.2 | 8.0 | 0.00 | 0.00 | 0.00 | 77 | 1014.4 |
| 20260905142601 | 27 | 344 | 1.6 | 6.4 | 0.00 | 0.00 | 0.00 | 81 | 1014.4 |
| 20260905142103 | 27 | 342 | 1.6 | 6.4 | 0.00 | 0.00 | 0.00 | 83 | 1014.4 |
| 20260905141601 | 26 | 0 | 1.6 | 3.2 | 0.00 | 0.00 | 0.00 | 84 | 1014.4 |
| 20260905141100 | 26 | 14 | 1.6 | 3.2 | 0.00 | 0.00 | 0.00 | 84 | 1014.4 |
| 20260905140602 | 26 | 0 | 1.6 | 3.2 | 0.00 | 0.00 | 0.00 | 86 | 1014.5 |
| 20260905140100 | 26 | 0 | 1.6 | 8.0 | 0.00 | 0.00 | 0.00 | 86 | 1014.5 |
| 20260905135624 | 26 | 24 | 1.6 | 8.0 | 0.00 | 0.00 | 0.00 | 87 | 1014.5 |
| 20260905134602 | 25 | 32 | 3.2 | 6.4 | 0.00 | 0.00 | 0.00 | 91 | 1014.7 |
| 20260905134102 | 25 | 348 | 3.2 | 8.0 | 0.00 | 0.00 | 0.00 | 90 | 1014.7 |
| 20260905133603 | 24 | 332 | 3.2 | 8.0 | 0.00 | 0.00 | 0.00 | 93 | 1014.8 |
| 20260905133102 | 23 | 341 | 3.2 | 6.4 | 0.00 | 0.00 | 0.00 | 95 | 1015.2 |
| 20260905132602 | 23 | 1 | 4.8 | 6.4 | 0.00 | 0.00 | 0.00 | 97 | 1015.4 |
| 20260905132101 | 23 | 324 | 3.2 | 6.4 | 0.00 | 0.00 | 0.00 | 99 | 1015.0 |
| 20260905131603 | 23 | 66 | 3.2 | 4.8 | 0.00 | 0.00 | 0.00 | 100 | 1014.5 |
| 20260905131102 | 23 | 10 | 3.2 | 4.8 | 0.00 | 0.00 | 0.00 | 100 | 1014.5 |
| 20260905130601 | 23 | 10 | 3.2 | 3.2 | 0.00 | 0.00 | 0.00 | 100 | 1014.5 |
| 20260905130100 | 23 | 73 | 1.6 | 3.2 | 0.00 | 0.00 | 0.00 | 100 | 1014.5 |
| 20260905125601 | 22 | 352 | 1.6 | 3.2 | 0.00 | 0.00 | 0.00 | 100 | 1014.5 |
| 20260905125100 | 22 | 0 | 3.2 | 3.2 | 0.00 | 0.00 | 0.00 | 100 | 1014.6 |
| 20260905124601 | 22 | 10 | 3.2 | 3.2 | 0.00 | 0.00 | 0.00 | 100 | 1014.5 |
| 20260905124101 | 22 | 12 | 3.2 | 3.2 | 0.00 | 0.00 | 0.00 | 100 | 1014.6 |
| 20260905123601 | 22 | 355 | 3.2 | 3.2 | 0.00 | 0.00 | 0.00 | 100 | 1014.6 |
| 20260905123347 | 22 | 340 | 1.6 | 3.2 | 0.00 | 0.00 | 0.00 | 100 | 1014.7 |
| 20260905122601 | 22 | 346 | 1.6 | 3.2 | 0.00 | 0.00 | 0.00 | 100 | 1014.8 |
| 20260905122345 | 21 | 357 | 1.6 | 3.2 | 0.00 | 0.00 | 0.00 | 100 | 1014.8 |
| 20260905121847 | 21 | 352 | 1.6 | 3.2 | 0.00 | 0.00 | 0.00 | 100 | 1014.7 |
| 20260905121101 | 21 | 13 | 1.6 | 3.2 | 0.00 | 0.00 | 0.00 | 100 | 1014.6 |
| 20260905120603 | 21 | 344 | 1.6 | 3.2 | 0.00 | 0.00 | 0.00 | 100 | 1014.5 |
| 20260905115601 | 21 | 350 | 1.6 | 3.2 | 0.00 | 0.00 | 0.00 | 100 | 1014.6 |
| 20260905115102 | 21 | 337 | 1.6 | 3.2 | 0.00 | 0.00 | 0.00 | 100 | 1014.5 |
| 20260905114843 | 21 | 14 | 1.6 | 3.2 | 0.00 | 0.00 | 0.00 | 100 | 1014.6 |
| 20260905114102 | 21 | 357 | 1.6 | 3.2 | 0.00 | 0.00 | 0.00 | 100 | 1014.5 |
| 20260905113845 | 21 | 345 | 1.6 | 3.2 | 0.00 | 0.00 | 0.00 | 100 | 1014.5 |